Date Time,Air Temp,Sky Temp,Clarity,Light Level,Rain Sensor,Readings
2015-07-25 00:00:04,18.2,8.1,10.1,0.0,2.5,112
2015-07-25 00:05:04,18.2,8.2,9.9,0.0,2.6,111
2015-07-25 00:10:04,18.2,8.5,9.7,0.0,2.7,111
2015-07-25 00:15:04,18.2,8.3,9.9,0.0,3.2,112
2015-07-25 00:20:04,18.2,7.7,10.5,0.0,3.8,111
2015-07-25 00:25:04,17.9,8.0,9.9,0.0,3.2,112
2015-07-25 00:30:04,18.2,8.1,10.1,0.0,3.2,111
2015-07-25 00:35:04,18.3,7.3,11.0,0.0,11.4,111
2015-07-25 00:40:04,18.3,7.8,10.5,0.0,4.7,112
2015-07-25 00:45:04,18.3,8.3,10.0,0.0,4.8,111
2015-07-25 00:50:04,18.2,8.0,10.2,0.0,3.1,111
2015-07-25 00:55:04,18.2,7.7,10.4,0.0,3.5,112
2015-07-25 01:00:04,18.2,8.1,10.1,0.0,2.6,111
2015-07-25 01:05:04,18.1,8.0,10.1,0.0,2.3,112
2015-07-25 01:10:04,18.0,7.6,10.4,0.0,2.3,111
2015-07-25 01:15:04,18.0,7.4,10.6,0.0,2.3,111
2015-07-25 01:20:04,18.0,7.8,10.2,0.0,2.3,112
2015-07-25 01:25:04,18.1,7.5,10.6,0.0,2.2,111
2015-07-25 01:30:04,18.1,7.4,10.7,0.0,2.3,111
2015-07-25 01:35:04,18.1,7.3,10.8,0.0,2.7,112
2015-07-25 01:40:04,18.1,6.9,11.2,0.0,2.7,111
2015-07-25 01:45:04,18.0,6.9,11.2,0.0,2.8,112
2015-07-25 01:50:04,17.9,6.6,11.3,0.0,2.6,111
2015-07-25 01:55:04,17.9,7.2,10.7,0.0,2.7,111
2015-07-25 02:00:04,17.8,6.0,11.8,0.0,6.9,112
2015-07-25 02:05:04,17.8,6.1,11.6,0.0,3.1,111
2015-07-25 02:10:04,17.7,6.8,10.9,0.0,2.3,111
2015-07-25 02:15:04,17.6,6.4,11.3,0.0,2.3,112
2015-07-25 02:20:04,17.6,5.6,12.0,0.0,2.3,111
2015-07-25 02:25:04,17.6,5.0,12.6,0.0,2.3,112
2015-07-25 02:30:04,17.6,4.7,12.9,0.0,2.3,111
2015-07-25 02:35:04,17.6,3.6,14.0,0.0,2.3,112
2015-07-25 02:40:04,17.6,3.2,14.4,0.0,2.3,111
2015-07-25 02:45:04,17.5,2.2,15.3,0.0,2.3,111
2015-07-25 02:50:04,17.4,1.8,15.7,0.0,2.4,111
2015-07-25 02:55:04,17.4,2.7,14.6,0.0,2.5,111
2015-07-25 03:00:04,17.4,2.7,14.7,0.0,2.5,111
2015-07-25 03:05:04,17.4,1.8,15.5,0.0,2.6,111
2015-07-25 03:10:04,17.3,1.5,15.8,0.0,2.7,111
2015-07-25 03:15:04,17.3,0.2,17.0,0.0,2.7,112
2015-07-25 03:20:04,17.3,-1.2,18.5,0.0,2.7,111
2015-07-25 03:25:04,18.5,-2.6,21.1,0.0,2.4,112
2015-07-25 03:30:04,20.7,-4.1,24.8,0.0,2.2,112
2015-07-25 03:35:04,21.4,-3.7,25.1,0.0,2.0,111
2015-07-25 03:40:04,21.7,-1.4,23.1,0.0,2.2,112
2015-07-25 03:45:04,21.7,-0.9,22.7,0.0,2.3,112
2015-07-25 03:50:04,21.5,-1.7,23.1,0.0,2.3,112
2015-07-25 03:55:04,21.8,-1.9,23.7,0.0,2.3,111
2015-07-25 04:00:04,21.7,-3.2,24.9,0.0,2.3,112
2015-07-25 04:05:04,21.8,-6.9,28.7,0.1,2.3,112
2015-07-25 04:10:04,21.7,-7.3,29.0,0.1,2.2,112
2015-07-25 04:15:04,21.6,-2.4,24.0,0.2,2.2,111
2015-07-25 04:20:04,21.7,-7.5,29.2,0.4,2.2,112
2015-07-25 04:25:04,21.6,-9.9,31.5,0.8,2.2,111
2015-07-25 04:30:04,21.5,-9.9,31.4,1.3,2.1,112
2015-07-25 04:35:04,21.4,-9.4,30.7,2.3,2.0,112
2015-07-25 04:40:04,21.3,-3.5,24.8,4.0,2.0,111
2015-07-25 04:45:04,20.1,2.7,17.4,6.0,2.0,111
2015-07-25 04:50:04,17.9,3.7,14.2,9.3,2.3,112
2015-07-25 04:55:04,17.4,3.3,14.0,13.3,2.6,111
2015-07-25 05:00:04,17.1,2.5,14.6,17.9,2.7,112
2015-07-25 05:05:04,18.1,-4.3,22.4,22.9,2.5,112
2015-07-25 05:10:04,20.5,-5.5,26.0,25.8,2.3,111
2015-07-25 05:15:04,21.1,-8.6,29.7,27.9,2.1,112
2015-07-25 05:20:04,21.3,-9.0,30.3,29.2,2.0,112
2015-07-25 05:25:04,21.3,-8.6,29.9,30.0,2.0,111
2015-07-25 05:30:04,21.4,-9.0,30.4,30.6,2.0,112
2015-07-25 05:35:04,21.4,-10.0,31.3,31.0,2.0,112
2015-07-25 05:40:04,21.4,-10.0,31.3,31.3,2.0,112
2015-07-25 05:45:04,21.4,-10.6,31.9,31.5,2.0,112
2015-07-25 05:50:04,21.4,-10.6,32.0,31.6,2.0,112
2015-07-25 05:55:04,21.4,-9.8,31.2,31.8,2.0,111
2015-07-25 06:00:04,21.4,-9.9,31.3,31.9,2.0,112
2015-07-25 06:05:02,21.5,-10.4,32.0,32.0,2.1,68
2015-07-25 06:10:02,21.6,-10.5,32.1,32.0,2.2,111
2015-07-25 06:15:02,21.8,-10.0,31.8,32.1,2.3,112
2015-07-25 06:20:02,21.5,-9.9,31.5,32.1,2.3,112
2015-07-25 06:25:02,22.0,-10.0,32.0,32.1,2.3,112
2015-07-25 06:30:02,22.1,-10.0,32.1,32.1,2.4,112
2015-07-25 06:35:02,22.2,-10.3,32.6,32.2,2.5,112
2015-07-25 06:40:02,22.5,-10.3,32.7,32.2,2.7,111
2015-07-25 06:45:02,22.7,-9.9,32.6,32.2,2.6,112
2015-07-25 06:50:02,22.8,-9.9,32.7,32.2,2.4,112
2015-07-25 06:55:02,22.9,-9.7,32.6,32.2,2.4,112
2015-07-25 07:00:02,23.0,-9.7,32.7,32.2,2.3,111
2015-07-25 07:05:02,23.1,-10.0,33.1,32.2,2.3,112
2015-07-25 07:10:02,23.3,-10.2,33.4,32.3,2.3,112
2015-07-25 07:15:02,23.3,-9.9,33.2,32.3,2.3,112
2015-07-25 07:20:02,23.4,-9.0,32.4,32.3,2.3,112
2015-07-25 07:25:02,23.5,-7.2,30.7,32.3,2.3,112
2015-07-25 07:30:02,23.5,-1.4,25.0,32.4,2.3,111
2015-07-25 07:35:02,21.7,5.7,16.0,32.4,2.4,112
2015-07-25 07:40:02,20.1,6.1,13.9,32.4,2.6,111
2015-07-25 07:45:02,19.5,5.5,14.0,32.4,2.3,111
2015-07-25 07:50:02,20.1,1.9,18.2,32.4,2.3,112
2015-07-25 07:55:02,19.7,0.4,19.3,32.4,2.3,111
2015-07-25 08:00:02,19.7,1.8,17.8,32.4,2.2,112
2015-07-25 08:05:02,19.7,0.2,19.5,32.4,2.3,111
2015-07-25 08:10:02,20.3,1.3,19.0,32.5,2.3,111
2015-07-25 08:15:02,20.3,3.6,16.6,32.5,2.4,111
2015-07-25 08:20:02,21.3,0.1,21.2,32.5,2.5,112
2015-07-25 08:25:02,23.5,-5.2,28.7,32.4,2.3,112
2015-07-25 08:30:02,24.0,-6.4,30.4,32.4,2.3,111
2015-07-25 08:35:02,24.1,-4.5,28.6,32.4,2.3,112
2015-07-25 08:40:02,24.3,-0.2,24.4,32.5,2.5,112
2015-07-25 08:45:02,24.4,-2.2,26.6,32.4,2.4,111
2015-07-25 08:50:02,24.8,-0.9,25.7,32.5,2.3,112
2015-07-25 08:55:02,25.1,1.6,23.5,32.5,2.3,111
2015-07-25 09:00:02,25.3,0.4,24.8,32.5,2.3,112
2015-07-25 09:05:02,25.6,0.9,24.7,32.5,2.3,111
2015-07-25 09:10:02,24.9,4.2,20.7,32.5,2.3,112
2015-07-25 09:15:02,24.9,-4.9,29.8,32.4,2.3,111
2015-07-25 09:20:02,25.3,-2.2,27.5,32.5,2.3,112
2015-07-25 09:25:02,25.6,2.5,23.1,32.5,2.4,112
2015-07-25 09:30:02,24.1,7.5,16.6,32.5,2.3,111
2015-07-25 09:35:02,22.4,7.7,14.7,32.5,2.4,112
2015-07-25 09:40:02,21.6,5.6,16.0,32.5,2.4,112
2015-07-25 09:45:02,20.9,6.8,14.2,32.5,2.3,111
2015-07-25 09:50:02,21.4,8.1,13.4,32.5,2.3,112
2015-07-25 09:55:02,21.5,3.2,18.4,32.5,2.3,111
2015-07-25 10:00:02,23.9,-3.7,27.6,32.5,2.4,112
2015-07-25 10:05:02,25.7,2.1,23.6,32.5,2.3,111
2015-07-25 10:10:02,26.2,6.5,19.8,32.5,2.3,112
2015-07-25 10:15:02,26.6,-0.4,27.0,32.5,2.3,111
2015-07-25 10:20:02,27.4,2.8,24.6,32.5,2.3,112
2015-07-25 10:25:02,27.5,4.5,23.0,32.5,2.3,111
2015-07-25 10:30:02,27.7,0.7,27.0,32.5,2.3,112
2015-07-25 10:35:02,27.7,-3.9,31.6,32.5,2.3,112
2015-07-25 10:40:02,27.9,0.7,27.2,32.6,2.3,111
2015-07-25 10:45:02,28.7,4.7,24.0,32.6,2.4,111
2015-07-25 10:50:02,29.1,5.3,23.9,32.5,2.3,112
2015-07-25 10:55:02,28.5,2.1,26.4,32.5,2.3,111
2015-07-25 11:00:02,27.7,-1.5,29.2,32.5,2.5,112
2015-07-25 11:05:02,27.5,0.2,27.2,32.5,2.3,111
2015-07-25 11:10:02,28.1,2.2,25.8,32.5,2.5,112
2015-07-25 11:15:02,27.4,7.7,19.6,32.6,2.5,111
2015-07-25 11:20:02,24.8,8.8,16.1,32.5,2.3,112
2015-07-25 11:25:02,23.8,8.7,15.1,32.4,2.3,111
2015-07-25 11:30:02,23.1,9.1,14.0,32.5,2.4,112
2015-07-25 11:35:02,23.0,8.2,14.8,32.5,2.4,112
2015-07-25 11:40:02,22.9,6.7,16.2,32.5,2.3,111
2015-07-25 11:45:02,24.6,0.0,24.6,32.5,2.3,112
2015-07-25 11:50:02,26.4,2.8,23.5,32.5,2.3,111
2015-07-25 11:55:02,25.2,10.1,15.1,32.6,2.3,112
2015-07-25 12:00:02,24.7,5.8,18.9,32.5,2.3,111
2015-07-25 12:05:02,27.6,4.1,23.5,32.6,2.4,112
2015-07-25 12:10:02,29.7,3.3,26.4,32.6,2.3,111
2015-07-25 12:15:02,29.9,0.9,28.9,32.5,2.3,112
2015-07-25 12:20:02,29.5,7.9,21.6,32.6,2.3,111
2015-07-25 12:25:02,28.0,9.3,18.7,32.5,2.3,112
2015-07-25 12:30:02,25.7,9.0,16.6,32.5,2.4,111
2015-07-25 12:35:02,25.1,8.0,17.1,32.5,2.3,112
2015-07-25 12:40:02,25.8,7.5,18.3,32.6,2.4,111
2015-07-25 12:45:02,27.7,6.9,20.8,32.6,2.4,112
2015-07-25 12:50:02,30.9,8.6,22.2,32.6,2.4,111
2015-07-25 12:55:02,31.7,9.0,22.7,32.6,2.3,112
2015-07-25 13:00:02,31.5,9.1,22.4,32.5,2.3,111
2015-07-25 13:05:02,30.6,8.2,22.3,32.5,2.3,111
2015-07-25 13:10:02,29.2,8.7,20.5,32.5,2.3,112
2015-07-25 13:15:02,27.5,6.7,20.8,32.5,2.3,112
2015-07-25 13:20:02,28.9,6.8,22.1,32.6,2.4,111
2015-07-25 13:25:02,28.9,10.9,18.0,32.6,2.3,111
2015-07-25 13:30:02,27.0,8.9,18.1,32.5,2.3,112
2015-07-25 13:35:02,25.4,8.6,16.8,32.5,2.5,111
2015-07-25 13:40:02,24.6,7.6,16.9,32.6,2.3,112
2015-07-25 13:45:02,25.0,6.6,18.4,32.6,2.4,111
2015-07-25 13:50:02,27.5,5.8,21.7,32.6,2.4,112
2015-07-25 13:55:02,29.8,4.7,25.1,32.6,2.4,111
2015-07-25 14:00:02,31.7,8.2,23.5,32.6,2.4,111
2015-07-25 14:05:02,33.2,9.6,23.7,32.6,2.4,112
2015-07-25 14:10:02,34.0,8.1,25.9,32.6,1.9,112
2015-07-25 14:15:02,32.7,7.2,25.6,32.6,2.3,111
2015-07-25 14:20:02,31.6,6.9,24.7,32.6,2.4,112
2015-07-25 14:25:02,32.8,4.4,28.4,32.6,2.3,111
2015-07-25 14:30:02,33.1,6.8,26.3,32.6,2.4,111
2015-07-25 14:35:02,33.7,4.8,28.9,32.6,1.9,112
2015-07-25 14:40:02,33.4,6.3,27.1,32.6,2.3,111
2015-07-25 14:45:02,33.6,9.1,24.5,32.6,1.7,111
2015-07-25 14:50:02,33.7,9.6,24.1,32.6,1.6,112
2015-07-25 14:55:02,32.3,9.4,22.9,32.5,2.3,112
2015-07-25 15:00:02,30.8,9.1,21.7,32.5,2.3,111
2015-07-25 15:05:02,29.9,9.6,20.3,32.6,2.3,112
2015-07-25 15:10:02,28.2,9.4,18.8,32.6,2.4,111
2015-07-25 15:15:02,26.7,9.6,17.0,32.5,2.3,111
2015-07-25 15:20:02,26.0,8.2,17.8,32.5,2.3,112
2015-07-25 15:25:02,25.6,9.5,16.2,32.6,2.4,111
2015-07-25 15:30:02,27.6,8.5,19.1,32.6,2.4,112
2015-07-25 15:35:02,31.5,5.9,25.6,32.6,2.4,111
2015-07-25 15:40:02,31.9,10.0,21.9,32.6,2.4,111
2015-07-25 15:45:02,31.0,7.2,23.9,32.5,2.3,112
2015-07-25 15:50:02,31.2,8.3,22.8,32.5,2.3,111
2015-07-25 15:55:02,30.6,8.9,21.7,32.5,2.3,111
2015-07-25 16:00:02,30.1,9.0,21.1,32.6,2.3,112
2015-07-25 16:05:02,29.3,9.9,19.4,32.6,2.3,111
2015-07-25 16:10:03,29.4,12.9,16.5,32.6,2.4,111
2015-07-25 16:15:03,29.2,11.5,17.7,32.6,2.4,112
2015-07-25 16:20:03,30.9,8.3,22.6,32.6,2.4,111
2015-07-25 16:25:03,33.3,6.3,27.0,32.6,1.7,111
2015-07-25 16:30:03,34.2,7.1,27.1,32.6,1.3,112
2015-07-25 16:35:03,34.6,6.9,27.7,32.6,1.2,111
2015-07-25 16:40:03,33.9,6.2,27.7,32.6,1.2,111
2015-07-25 16:45:03,33.4,11.6,21.8,32.6,1.3,112
2015-07-25 16:50:03,33.8,7.5,26.3,32.6,1.3,111
2015-07-25 16:55:03,32.8,8.1,24.7,32.6,1.5,111
2015-07-25 17:00:03,31.7,7.1,24.6,32.5,2.3,111
2015-07-25 17:05:03,30.8,6.6,24.2,32.5,2.3,112
2015-07-25 17:10:03,30.1,8.0,22.1,32.5,2.3,111
2015-07-25 17:15:03,29.7,7.9,21.8,32.5,2.3,112
2015-07-25 17:20:03,29.4,7.7,21.8,32.5,2.3,111
2015-07-25 17:25:03,28.7,9.0,19.7,32.4,2.3,111
2015-07-25 17:30:03,25.8,9.7,16.2,32.4,2.3,112
2015-07-25 17:35:03,24.7,9.9,14.8,32.4,2.5,111
2015-07-25 17:40:03,24.2,10.0,14.2,32.4,2.4,112
2015-07-25 17:45:03,24.0,10.8,13.3,32.5,2.3,111
2015-07-25 17:50:03,24.3,9.1,15.1,32.5,2.3,112
2015-07-25 17:55:03,24.7,10.8,13.9,32.6,2.4,111
2015-07-25 18:00:03,26.2,10.7,15.5,32.6,2.3,112
2015-07-25 18:05:03,29.4,6.0,23.3,32.6,2.3,111
2015-07-25 18:10:03,31.9,4.3,27.6,32.6,2.3,112
2015-07-25 18:15:03,32.6,2.1,30.5,32.6,2.3,111
2015-07-25 18:20:03,32.7,2.5,30.2,32.6,2.3,111
2015-07-25 18:25:03,32.6,2.5,30.1,32.6,2.3,111
2015-07-25 18:30:03,32.5,0.5,32.0,32.6,2.3,111
2015-07-25 18:35:03,32.1,-0.2,32.3,32.6,2.3,112
2015-07-25 18:40:03,31.8,-0.9,32.7,32.6,2.3,112
2015-07-25 18:45:03,31.4,-0.8,32.3,32.6,2.3,112
2015-07-25 18:50:03,31.3,-0.8,32.0,32.6,2.3,111
2015-07-25 18:55:03,31.3,-0.6,31.9,32.6,2.3,112
2015-07-25 19:00:03,31.3,-1.0,32.3,32.6,2.3,112
2015-07-25 19:05:03,31.2,-1.1,32.3,32.6,2.3,112
2015-07-25 19:10:03,31.0,-1.7,32.7,32.6,2.3,111
2015-07-25 19:15:03,30.8,-1.2,32.0,32.6,2.3,112
2015-07-25 19:20:03,30.7,-1.9,32.6,32.6,2.3,111
2015-07-25 19:25:03,30.6,-1.9,32.4,32.6,2.3,112
2015-07-25 19:30:03,30.4,-2.4,32.8,32.5,2.3,112
2015-07-25 19:35:03,30.1,-2.9,33.0,32.5,2.3,112
2015-07-25 19:40:03,29.8,-2.9,32.7,32.5,2.3,112
2015-07-25 19:45:03,29.6,-3.6,33.1,32.5,2.3,112
2015-07-25 19:50:03,29.3,-3.2,32.4,32.5,2.3,112
2015-07-25 19:55:03,29.2,-3.3,32.5,32.5,2.3,111
2015-07-25 20:00:03,29.2,-3.6,32.8,32.5,2.3,112
2015-07-25 20:05:03,29.0,-4.5,33.4,32.4,2.3,112
2015-07-25 20:10:03,28.6,-5.1,33.6,32.3,2.3,111
2015-07-25 20:15:03,27.9,-6.1,34.0,32.1,2.3,112
2015-07-25 20:20:03,27.2,-5.8,33.0,32.0,2.3,112
2015-07-25 20:25:03,26.7,-5.7,32.4,32.0,2.4,111
2015-07-25 20:30:03,26.3,-6.0,32.3,31.9,2.4,112
2015-07-25 20:35:03,26.0,-6.1,32.1,31.8,2.3,111
2015-07-25 20:40:03,25.4,-5.9,31.2,31.8,2.3,112
2015-07-25 20:45:03,25.6,-6.0,31.7,31.6,2.3,111
2015-07-25 20:50:03,25.4,-6.1,31.5,31.3,2.3,112
2015-07-25 20:55:03,25.3,-5.8,31.1,31.0,2.3,111
2015-07-25 21:00:03,25.1,-5.4,30.4,30.6,2.3,111
2015-07-25 21:05:03,24.9,-4.9,29.8,30.0,2.3,112
2015-07-25 21:10:03,24.8,-4.6,29.4,29.0,2.3,112
2015-07-25 21:15:03,24.7,-4.4,29.2,27.5,2.3,112
2015-07-25 21:20:03,24.6,-4.8,29.4,25.2,2.3,112
2015-07-25 21:25:03,24.5,-5.2,29.7,21.7,2.3,111
2015-07-25 21:30:03,24.3,-5.8,30.1,17.0,2.3,112
2015-07-25 21:35:03,24.3,-5.9,30.2,12.0,2.4,111
2015-07-25 21:40:03,24.3,-5.3,29.6,7.9,2.4,112
2015-07-25 21:45:03,24.2,-4.1,28.3,5.0,2.3,112
2015-07-25 21:50:03,24.1,-3.0,27.1,3.0,2.3,112
2015-07-25 21:55:03,24.0,-2.7,26.8,1.9,2.3,111
2015-07-25 22:00:03,23.9,-5.1,29.0,1.1,2.3,112
2015-07-25 22:05:03,23.8,-6.1,29.9,0.7,2.3,111
2015-07-25 22:10:03,23.7,-5.8,29.5,0.4,2.3,112
2015-07-25 22:15:03,23.6,-6.4,30.0,0.3,2.3,111
2015-07-25 22:20:03,23.6,-6.3,29.9,0.2,2.3,112
2015-07-25 22:25:03,23.5,-6.1,29.6,0.2,2.3,112
2015-07-25 22:30:03,23.4,-6.2,29.6,0.1,2.3,111
2015-07-25 22:35:03,23.4,-6.3,29.7,0.1,2.3,112
2015-07-25 22:40:03,23.3,-6.7,30.1,0.1,2.5,112
2015-07-25 22:45:03,23.2,-6.7,29.9,0.1,2.6,112
2015-07-25 22:50:03,23.1,-6.5,29.7,0.1,2.5,111
2015-07-25 22:55:03,23.1,-5.7,28.8,0.1,2.4,112
2015-07-25 23:00:03,23.1,-4.6,27.7,0.1,2.4,112
2015-07-25 23:05:03,23.2,-4.6,27.8,0.1,2.4,111
2015-07-25 23:10:03,23.3,-6.3,29.5,0.0,2.4,112
2015-07-25 23:15:03,23.2,-5.8,29.0,0.0,2.3,112
2015-07-25 23:20:03,23.2,-5.1,28.3,0.0,2.3,111
2015-07-25 23:25:03,23.3,-4.3,27.6,0.0,2.4,112
2015-07-25 23:30:03,23.4,-1.8,25.2,0.0,2.6,111
2015-07-25 23:35:03,23.5,1.4,22.0,0.0,2.6,112
2015-07-25 23:40:03,23.6,1.4,22.2,0.0,2.6,110
2015-07-25 23:45:03,23.7,-0.8,24.5,0.0,2.3,112
2015-07-25 23:50:03,23.8,-3.5,27.3,0.0,2.3,111
2015-07-25 23:55:03,23.7,-5.2,28.9,0.0,2.3,111
